TimeCST,TemperatureF,Dew PointF,Humidity,Sea Level PressureIn,VisibilityMPH,Wind Direction,Wind SpeedMPH,Gust SpeedMPH,PrecipitationIn,Events,Conditions,WindDirDegrees,DateUTC
12:53 AM,30.0,24.1,79,30.12,10.0,North,10.4,-,N/A,,Clear,10,2012-11-26 06:53:00
1:53 AM,30.9,25.0,79,30.13,10.0,NNE,11.5,-,N/A,,Clear,20,2012-11-26 07:53:00
2:53 AM,30.0,24.1,79,30.15,10.0,NNE,12.7,-,N/A,,Clear,20,2012-11-26 08:53:00
3:53 AM,30.0,23.0,75,30.17,10.0,NNE,9.2,-,N/A,,Clear,30,2012-11-26 09:53:00
4:53 AM,28.9,21.9,75,30.18,10.0,NNE,6.9,-,N/A,,Clear,20,2012-11-26 10:53:00
5:53 AM,28.0,21.9,78,30.21,10.0,NNE,6.9,-,N/A,,Clear,20,2012-11-26 11:53:00
6:53 AM,30.0,23.0,75,30.23,10.0,NNE,9.2,-,N/A,,Clear,20,2012-11-26 12:53:00
7:53 AM,33.1,24.1,70,30.25,10.0,NNE,10.4,-,N/A,,Clear,30,2012-11-26 13:53:00
8:53 AM,34.0,23.0,64,30.30,10.0,NNE,12.7,-,N/A,,Clear,20,2012-11-26 14:53:00
9:53 AM,35.1,23.0,61,30.33,10.0,NNE,11.5,19.6,N/A,,Mostly Cloudy,30,2012-11-26 15:53:00
10:53 AM,37.0,21.9,54,30.38,10.0,NNE,13.8,-,N/A,,Mostly Cloudy,20,2012-11-26 16:53:00
11:53 AM,37.0,23.0,57,30.38,10.0,NNE,12.7,-,N/A,,Overcast,20,2012-11-26 17:53:00
12:53 PM,35.1,25.0,67,30.39,10.0,NNE,17.3,-,N/A,,Overcast,20,2012-11-26 18:53:00
1:53 PM,34.0,26.1,73,30.40,5.0,North,16.1,-,0.00,Snow,Light Snow,10,2012-11-26 19:53:00
2:53 PM,36.0,24.1,62,30.39,10.0,NNE,12.7,-,0.00,,Mostly Cloudy,20,2012-11-26 20:53:00
3:53 PM,36.0,21.9,57,30.39,10.0,North,13.8,-,N/A,,Mostly Cloudy,10,2012-11-26 21:53:00
4:53 PM,33.1,23.0,66,30.41,10.0,North,12.7,-,N/A,,Clear,360,2012-11-26 22:53:00
5:53 PM,28.0,19.9,72,30.44,10.0,North,5.8,-,N/A,,Clear,360,2012-11-26 23:53:00
6:53 PM,27.0,17.1,66,30.46,10.0,North,10.4,-,N/A,,Clear,360,2012-11-27 00:53:00
7:53 PM,24.1,15.1,69,30.48,10.0,North,10.4,-,N/A,,Clear,360,2012-11-27 01:53:00
8:53 PM,21.0,14.0,74,30.50,10.0,North,5.8,-,N/A,,Clear,360,2012-11-27 02:53:00
9:53 PM,19.0,10.9,71,30.51,10.0,North,6.9,-,N/A,,Clear,360,2012-11-27 03:53:00
10:53 PM,18.0,10.0,71,30.51,10.0,North,4.6,-,N/A,,Clear,360,2012-11-27 04:53:00
11:53 PM,17.1,9.0,71,30.51,10.0,Calm,Calm,-,N/A,,Clear,0,2012-11-27 05:53:00